Preview of NWS' New Version of Forecast
This preview is not operational and should not be used for support decisions.

Regional Weather Roundup (RWR)

Issued by National Weather Service (NWS)

                            
000
ASUS46 KSEW 191410
RWRWA 

WASHINGTON REGIONAL WEATHER ROUNDUP
NATIONAL WEATHER SERVICE SEATTLE WA
600 AM PST TUE FEB 19 2019

NOTE:"FAIR" INDICATES FEW OR NO CLOUDS BELOW 12,000 FEET WITH NO 
SIGNIFICANT WEATHER AND/OR OBSTRUCTIONS TO VISIBILITY.

WAZ507-509-555>559-191500-
SEATTLE, TACOMA, EVERETT, AND VICINITY
  
CITY           SKY/WX    TMP DP  RH WIND       PRES   REMARKS
EVERETT        CLOUDY    37  35  92 SE13      30.21F                  
BOEING FIELD   CLOUDY    38  35  89 SE7       30.25F                  
RENTON         LGT RAIN  39  36  89 CALM      30.25F                  
SEATAC AIRPORT LGT RAIN  38  35  89 CALM      30.23F                  
JBLM-MCCHORD   CLOUDY    37  37 100 S7        30.24F                  
PUYALLUP       DRIZZLE   37  36  93 S6        30.24F                  
BREMERTON      CLOUDY    34  34 100 CALM      30.22F FOG              
JBLM-FT LEWIS  CLOUDY    37  37 100 S8        30.23F                  
TACOMA NARROWS CLOUDY    38  34  85 SW5       30.24F                  
$$
 
WAZ001-503-506-510-514-515-191500-
NORTH INTERIOR
  
CITY           SKY/WX    TMP DP  RH WIND       PRES   REMARKS
BELLINGHAM     CLOUDY    31  27  85 N3        30.22F                  
FRIDAY HARBOR  CLOUDY    37  35  92 NW3       30.23S                  
EASTSOUND      CLOUDY    39  37  93 NW5       30.22S                  
PORT ANGELES   CLOUDY    37  28  70 W6        30.22F                  
EDIZ HOOK      CLOUDY    39  34  82 CALM      30.23S                  
PORT TOWNSEND  CLOUDY    34  34 100 CALM      30.22F                  
NAS WHIDBEY    LGT RAIN  40  34  79 SE6       30.27F                  
ARLINGTON      CLOUDY    34  33  96 CALM      30.23F                  
BURLINGTON     CLOUDY    34  34 100 CALM      30.23F                  
$$
 
WAZ020-022-039-040-504-511-512-191500-
SOUTHWEST INTERIOR
  
CITY           SKY/WX    TMP DP  RH WIND       PRES   REMARKS
SHELTON        CLOUDY    34  32  92 CALM      30.21F                  
OLYMPIA        CLOUDY    37  35  92 S7        30.25F                  
CHEHALIS       CLOUDY    37  37 100 VRB6      30.26F                  
KELSO          LGT RAIN  38  36  92 SE9       30.31F                  
VANCOUVER      CLOUDY    39  37  92 CALM      30.31F                  
SCAPPOOSE, OR  CLOUDY    38  36  92 CALM      30.31S FOG              
PORTLAND, OR   CLOUDY    39  36  89 CALM      30.32F                  
$$
 
WAZ021-516-517-191500-
WASHINGTON COAST
  
CITY           SKY/WX    TMP DP  RH WIND       PRES   REMARKS
FORKS          CLOUDY    35  31  85 E6        30.22F                  
HOQUIAM        LGT RAIN  40  39  97 NE3       30.24F FOG              
ASTORIA, OR    CLOUDY    39  38  96 SE5       30.27F                  
$$
 
WAZ019-023-024-040-567>569-191500-
CASCADE MOUNTAINS AND COLUMBIA GORGE
  
CITY           SKY/WX    TMP DP  RH WIND       PRES   REMARKS
STAMPEDE PASS  LGT SNOW  25  22  88 W8G18     30.04F FOG              
TROUTDALE, OR  LGT RAIN  39  37  92 CALM      30.32F FOG              
HOOD RIVER, OR CLOUDY    37  32  81 NW8       30.23F                  
THE DALLES, OR MOCLDY    39  30  70 W20       30.22S                  
$$

WAZ026-027-041>044-520-521-191500-
EAST SLOPES
  
CITY           SKY/WX    TMP DP  RH WIND       PRES   REMARKS
OMAK           PTCLDY     9   6  88 W5        30.21S                  
WENATCHEE      CLOUDY    15  11  83 CALM      30.20F                  
ELLENSBURG     CLOUDY    21  16  81 SE5       30.12S                  
YAKIMA         CLOUDY    11   7  84 CALM      30.20S                  
SUNNYSIDE ARPT CLOUDY    15  14  95 CALM      30.22  FOG              
YAKIMA TC      FAIR      14  11  87 CALM      30.16R                  
$$

WAZ028-034-035-191500-
COLUMBIA BASIN
  
CITY           SKY/WX    TMP DP  RH WIND       PRES   REMARKS
EPHRATA        CLOUDY    17   9  70 NW5       30.18F                  
MOSES LAKE     CLOUDY   N/A N/A N/A N7        30.20F                  
PASCO          MOCLDY    15  12  88 N5        30.25F                  
RICHLAND ARPT  PTSUNNY   18  17  93 CALM      30.25F                  
HERMISTON, OR  PTCLDY    21  18  88 CALM      30.19F FOG              
$$

WAZ036>038-191500-
NORTHEAST WASHINGTON
  
CITY           SKY/WX    TMP DP  RH WIND       PRES   REMARKS
SPOKANE GEIGER CLOUDY    12   7  80 CALM      30.11F                  
SPOKANE FELTS  CLOUDY    14  10  84 CALM      30.15F FOG              
FAIRCHILD AFB  CLOUDY    11  10  94 E6        30.09F                  
COEURDALENE,ID CLOUDY     8   6  92 CALM      30.12F                  
DEER PARK      CLOUDY     9   5  84 CALM      30.13F                  
$$

WAZ029>033-191500-
SOUTHEAST WASHINGTON
  
CITY           SKY/WX    TMP DP  RH WIND       PRES   REMARKS
PULLMAN        CLOUDY    20  15  81 E12       30.11F WCI   8          
LEWISTON, ID   CLOUDY    26  18  71 CALM      30.18F                  
WALLA WALLA    CLOUDY    32  26  78 CALM      30.17F                  
PENDLETON, OR  CLOUDY    33  26  75 S6        30.16F                  
$$